| time (UTC) | temp C | wind direction | speed KPH | gust KPH | rain 1hr cm | rain 24hr cm | rain mn cm | humidity % | barometer mb |
| 20260503203041 | 10 | 157 | 12.9 | 22.5 | 0.03 | 0.36 | 0.36 | 38 | 1014.4 |
| 20260503201533 | 9 | 155 | 12.9 | 22.5 | 0.08 | 0.36 | 0.36 | 38 | 1015.0 |
| 20260503200133 | 8 | 128 | 14.5 | 20.9 | 0.15 | 0.36 | 0.36 | 39 | 1015.4 |
| 20260503194530 | 8 | 150 | 8.0 | 12.9 | 0.25 | 0.36 | 0.36 | 42 | 1016.1 |
| 20260503193026 | 8 | 360 | 3.2 | 9.7 | 0.28 | 0.30 | 0.30 | 45 | 1016.9 |
| 20260503191534 | 9 | 360 | 4.8 | 14.5 | 0.28 | 0.28 | 0.28 | 46 | 1017.2 |
| 20260503190023 | 9 | 193 | 14.5 | 19.3 | 0.20 | 0.20 | 0.20 | 49 | 1017.7 |
| 20260503184521 | 10 | 222 | 14.5 | 22.5 | 0.10 | 0.10 | 0.10 | 51 | 1018.0 |
| 20260503183017 | 10 | 227 | 17.7 | 30.6 | 0.03 | 0.03 | 0.03 | 52 | 1017.9 |
| 20260503181515 | 11 | 236 | 29.0 | 38.6 | 0.00 | 0.00 | 0.00 | 52 | 1017.9 |
| 20260503180015 | 12 | 360 | 27.4 | 48.3 | 0.00 | 0.00 | 0.00 | 45 | 1017.7 |
| 20260503174513 | 14 | 227 | 33.8 | 45.1 | 0.00 | 0.00 | 0.00 | 37 | 1017.1 |
| 20260503173012 | 15 | 229 | 33.8 | 45.1 | 0.00 | 0.00 | 0.00 | 36 | 1017.1 |
| 20260503171510 | 15 | 236 | 32.2 | 40.2 | 0.00 | 0.00 | 0.00 | 34 | 1017.5 |
| 20260503160116 | 15 | 224 | 29.0 | 40.2 | 0.00 | 0.00 | 0.00 | 36 | 1018.4 |
| 20260503071541 | 3 | 188 | 0.0 | 3.2 | 0.00 | 0.00 | 0.00 | 53 | 1019.8 |
| 20260503054535 | 4 | 194 | 0.0 | 0.0 | 0.00 | 0.00 | 0.00 | 53 | 1020.5 |
| 20260503053026 | 4 | 194 | 0.0 | 0.0 | 0.00 | 0.00 | 0.00 | 52 | 1020.7 |
| 20260503051522 | 5 | 195 | 0.0 | 1.6 | 0.00 | 0.00 | 0.00 | 51 | 1020.8 |
| 20260503050021 | 5 | 195 | 1.6 | 3.2 | 0.00 | 0.00 | 0.00 | 50 | 1020.8 |
| 20260503044522 | 5 | 360 | 0.0 | 0.0 | 0.00 | 0.00 | 0.00 | 50 | 1020.9 |
| 20260503043034 | 5 | 360 | 0.0 | 1.6 | 0.00 | 0.00 | 0.00 | 49 | 1020.8 |
| 20260503041517 | 5 | 360 | 0.0 | 3.2 | 0.00 | 0.00 | 0.00 | 48 | 1021.0 |
| 20260503040113 | 5 | 360 | 0.0 | 0.0 | 0.00 | 0.00 | 0.00 | 51 | 1021.0 |
| 20260503034513 | 4 | 360 | 0.0 | 0.0 | 0.00 | 0.00 | 0.00 | 52 | 1021.0 |
| 20260503033019 | 5 | 360 | 0.0 | 0.0 | 0.00 | 0.00 | 0.00 | 51 | 1020.9 |
| 20260503031512 | 5 | 360 | 0.0 | 0.0 | 0.00 | 0.00 | 0.00 | 51 | 1021.1 |
| 20260503030011 | 5 | 360 | 0.0 | 0.0 | 0.00 | 0.00 | 0.00 | 50 | 1021.1 |
| 20260503024522 | 5 | 360 | 0.0 | 0.0 | 0.00 | 0.00 | 0.00 | 50 | 1021.1 |
| 20260503023010 | 5 | 355 | 0.0 | 0.0 | 0.00 | 0.00 | 0.00 | 52 | 1020.9 |
| 20260503021530 | 5 | 355 | 0.0 | 0.0 | 0.00 | 0.00 | 0.00 | 52 | 1021.0 |
| 20260503020010 | 6 | 360 | 0.0 | 0.0 | 0.00 | 0.00 | 0.00 | 52 | 1021.2 |
| 20260503014510 | 7 | 355 | 0.0 | 0.0 | 0.00 | 0.00 | 0.00 | 48 | 1020.9 |
| 20260503013009 | 7 | 355 | 0.0 | 3.2 | 0.00 | 0.00 | 0.00 | 45 | 1020.8 |
| 20260503011508 | 8 | 360 | 0.0 | 0.0 | 0.00 | 0.00 | 0.00 | 42 | 1020.7 |
| 20260503010008 | 8 | 350 | 0.0 | 0.0 | 0.00 | 0.00 | 0.00 | 40 | 1020.7 |
| 20260503004507 | 9 | 355 | 0.0 | 1.6 | 0.00 | 0.00 | 0.00 | 35 | 1020.9 |
| 20260503003012 | 10 | 355 | 0.0 | 4.8 | 0.00 | 0.00 | 0.00 | 34 | 1020.7 |
| 20260503001506 | 11 | 360 | 0.0 | 4.8 | 0.00 | 0.00 | 0.00 | 29 | 1020.7 |
| 20260503000009 | 11 | 360 | 1.6 | 9.7 | 0.00 | 0.00 | 0.00 | 26 | 1020.7 |
| 20260502234505 | 11 | 322 | 6.4 | 12.9 | 0.00 | 0.00 | 0.00 | 29 | 1020.8 |
| 20260502233004 | 11 | 10 | 6.4 | 17.7 | 0.00 | 0.00 | 0.00 | 26 | 1020.8 |
| 20260502231505 | 12 | 321 | 8.0 | 16.1 | 0.00 | 0.00 | 0.00 | 26 | 1020.9 |
| 20260502230003 | 12 | 9 | 4.8 | 14.5 | 0.00 | 0.00 | 0.00 | 25 | 1021.0 |
| 20260502224501 | 12 | 321 | 3.2 | 16.1 | 0.00 | 0.00 | 0.00 | 26 | 1021.0 |
| 20260502223001 | 11 | 28 | 6.4 | 17.7 | 0.00 | 0.00 | 0.00 | 26 | 1021.0 |
| 20260502221603 | 12 | 309 | 8.0 | 20.9 | 0.00 | 0.00 | 0.00 | 24 | 1021.2 |
| 20260502220059 | 12 | 355 | 8.0 | 20.9 | 0.00 | 0.00 | 0.00 | 23 | 1021.2 |
| 20260502214558 | 12 | 11 | 11.3 | 19.3 | 0.00 | 0.00 | 0.00 | 24 | 1021.2 |
| 20260502213107 | 12 | 297 | 14.5 | 25.7 | 0.00 | 0.00 | 0.00 | 24 | 1021.0 |
| 20260502211557 | 12 | 317 | 16.1 | 25.7 | 0.00 | 0.00 | 0.00 | 26 | 1021.2 |
| 20260502210056 | 12 | 23 | 16.1 | 25.7 | 0.00 | 0.00 | 0.00 | 25 | 1021.2 |
| 20260502204555 | 12 | 303 | 14.5 | 24.1 | 0.00 | 0.00 | 0.00 | 26 | 1021.4 |